Location: Buch
(50.1863°N, 11.0141°E)
Time: 22:24:08
(UTC+00:00)

Cosmos 2344 - Pass Details

Date: 18 January 2020
Orbit: 1255 x 2987 km, 63.3° (Epoch: 16 February)

Event Time Altitude Azimuth Distance (km) Brightness Sun altitude
Rises 05:56:57 0° 241° (WSW) 4,212 5.9 -11.0°
Reaches altitude 10° 05:59:42 10° 246° (WSW) 3,233 5.3 -10.6°
Maximum altitude 06:07:04 59° 325° (NW) 1,515 3.8 -9.5°
Drops below altitude 10° 06:15:43 10° 45° (NE) 3,756 6.3 -8.2°
Sets 06:19:10 0° 49° (NE) 4,947 7.0 -7.7°
